STARLINK-4609 (53619 NORAD) Tracking and Keplerian Element Data

This shows tracking and keplerian element data for the satellite.

Feedback or suggestion? Click here.




ElementValue
Catalog53619
NameSTARLINK-4609
Epoch Orbit130
Epoch Day324.91667824
Epoch Year2022
RAAN242.5384
Inclination53.2161
Eccentricity0.0001706
Argument of Perigee56.6894
Mean Anonmoly2.791
Mean Motion15.08872234
Decay Rate-0.00060771
L11 53619U 22104AH 22324.91667824 -.00060771 00000+0 -38293-2 0 9998
L22 53619 53.2161 242.5384 0001706 56.6894 2.7910 15.08872234 1307



Live tracking and technical data element details for STARLINK-4609 (NORAD 53619). STARLINK-4609 can be tracked NOW for your location showing map with azimuth and elevation plus other details from your city location.







IsCatalogInMostPopularTable: catalog: 53619, numindb: -1

Insert: records affected: 1


GetName: 53619 STARLINK-4609

Hit Count: inserted at: Thu, 08 Dec 2022 19:50:33 GMT